When you browse on this site, cookies collect data to enhance your experience and personalize the content and advertising you see.
Visit our Privacy Policy to learn more. By continuing to use the site, you agree to this use of cookies and data.
  • în România
  • Lista ţărilor
  • Pe 7 zile
  • Temperatura apei
  • Hartă satelitară
  • Meteo pe hartă
  • Widget-uri
  • user-avatar
    Intrare

    Meteo pe oră la Iraklio

    Astăzi, 21 Martie, Joi

    Timp Temperatura Precipitaţii Vânt Presiune Umiditate
    00:00 +13°C° 0 mm 2 m/s 758 mmHg 93%
    01:00 +13°C° 0 mm 2 m/s 758 mmHg 92%
    02:00 +12°C° 0 mm 3 m/s 757 mmHg 92%
    03:00 +12°C° 0 mm 3 m/s 757 mmHg 92%
    04:00 +12°C° 0 mm 3 m/s 757 mmHg 93%
    05:00 +12°C° 0 mm 3 m/s 757 mmHg 93%
    06:00 +13°C° 0 mm 3 m/s 757 mmHg 92%
    07:00 +14°C° 0 mm 3 m/s 757 mmHg 91%
    08:00 +15°C° 0 mm 4 m/s 758 mmHg 90%
    09:00 +15°C° 0 mm 4 m/s 758 mmHg 86%
    10:00 +17°C° 0 mm 4 m/s 758 mmHg 82%
    11:00 +18°C° 0 mm 4 m/s 758 mmHg 78%
    12:00 +18°C° 0 mm 4 m/s 758 mmHg 75%
    13:00 +17°C° 0 mm 5 m/s 758 mmHg 72%
    14:00 +19°C° 0 mm 5 m/s 758 mmHg 69%
    15:00 +17°C° 0 mm 5 m/s 758 mmHg 71%
    16:00 +16°C° 0 mm 5 m/s 758 mmHg 73%
    17:00 +16°C° 0 mm 5 m/s 758 mmHg 75%
    18:00 +15°C° 0 mm 5 m/s 758 mmHg 79%
    19:00 +14°C° 0 mm 4 m/s 758 mmHg 83%
    20:00 +13°C° 0 mm 4 m/s 758 mmHg 88%
    21:00 +12°C° 0 mm 4 m/s 758 mmHg 88%
    22:00 +12°C° 0 mm 4 m/s 758 mmHg 89%
    23:00 +12°C° 0 mm 4 m/s 759 mmHg 89%

    Mâine, 22 Martie, Vineri

    Timp Temperatura Precipitaţii Vânt Presiune Umiditate
    00:00 +13°C° 0 mm 4 m/s 759 mmHg 90%
    01:00 +13°C° 0 mm 4 m/s 759 mmHg 91%
    02:00 +13°C° 0 mm 4 m/s 759 mmHg 92%
    03:00 +13°C° 0 mm 5 m/s 758 mmHg 92%
    04:00 +13°C° 0 mm 5 m/s 758 mmHg 92%
    05:00 +13°C° 0 mm 5 m/s 758 mmHg 93%
    06:00 +13°C° 0 mm 5 m/s 758 mmHg 90%
    07:00 +13°C° 0 mm 5 m/s 759 mmHg 88%
    08:00 +14°C° 0 mm 5 m/s 759 mmHg 85%
    09:00 +15°C° 0 mm 5 m/s 759 mmHg 81%
    10:00 +16°C° 0 mm 5 m/s 759 mmHg 76%
    11:00 +17°C° 0 mm 5 m/s 759 mmHg 71%
    12:00 +17°C° 0 mm 5 m/s 759 mmHg 70%
    13:00 +17°C° 0 mm 5 m/s 759 mmHg 70%
    14:00 +17°C° 0 mm 5 m/s 758 mmHg 69%
    15:00 +16°C° 0 mm 5 m/s 758 mmHg 71%
    16:00 +15°C° 0 mm 5 m/s 758 mmHg 73%
    17:00 +15°C° 0 mm 5 m/s 757 mmHg 75%
    18:00 +14°C° 0 mm 5 m/s 757 mmHg 78%
    19:00 +13°C° 0 mm 4 m/s 758 mmHg 81%
    20:00 +12°C° 0 mm 4 m/s 758 mmHg 84%
    21:00 +11°C° 0 mm 4 m/s 758 mmHg 85%
    22:00 +11°C° 0 mm 4 m/s 758 mmHg 85%
    23:00 +11°C° 0 mm 4 m/s 758 mmHg 86%

    Poimâine, 23 Martie, Sâmbătă

    Timp Temperatura Precipitaţii Vânt Presiune Umiditate
    00:00 +11°C° 0 mm 4 m/s 757 mmHg 86%
    01:00 +11°C° 0 mm 4 m/s 757 mmHg 86%
    02:00 +11°C° 0 mm 4 m/s 757 mmHg 87%
    03:00 +11°C° 0 mm 4 m/s 756 mmHg 86%
    04:00 +11°C° 0 mm 4 m/s 756 mmHg 86%
    05:00 +11°C° 0 mm 4 m/s 756 mmHg 86%
    06:00 +11°C° 0 mm 4 m/s 756 mmHg 83%
    07:00 +12°C° 0 mm 4 m/s 756 mmHg 80%
    08:00 +13°C° 0 mm 4 m/s 756 mmHg 78%
    09:00 +14°C° 0 mm 4 m/s 756 mmHg 72%
    10:00 +17°C° 0 mm 4 m/s 756 mmHg 67%
    11:00 +18°C° 0 mm 4 m/s 756 mmHg 62%
    12:00 +18°C° 0 mm 4 m/s 756 mmHg 62%
    13:00 +18°C° 0 mm 4 m/s 756 mmHg 62%
    14:00 +17°C° 0 mm 5 m/s 756 mmHg 62%
    15:00 +17°C° 0 mm 5 m/s 755 mmHg 65%
    16:00 +16°C° 0 mm 5 m/s 755 mmHg 68%
    17:00 +15°C° 0 mm 5 m/s 755 mmHg 70%
    18:00 +14°C° 0 mm 4 m/s 755 mmHg 75%
    19:00 +13°C° 0 mm 4 m/s 755 mmHg 79%
    20:00 +12°C° 0 mm 4 m/s 755 mmHg 83%
    21:00 +12°C° 0 mm 4 m/s 755 mmHg 84%
    22:00 +12°C° 0 mm 4 m/s 755 mmHg 85%
    23:00 +12°C° 0 mm 4 m/s 755 mmHg 86%

    24 Martie, Duminică

    Timp Temperatura Precipitaţii Vânt Presiune Umiditate
    00:00 +12°C° 0 mm 4 m/s 755 mmHg 87%
    01:00 +12°C° 0 mm 4 m/s 754 mmHg 88%
    02:00 +12°C° 0 mm 4 m/s 754 mmHg 89%
    03:00 +12°C° 0 mm 4 m/s 754 mmHg 87%
    04:00 +12°C° 0 mm 4 m/s 754 mmHg 86%
    05:00 +12°C° 0 mm 4 m/s 754 mmHg 84%
    06:00 +12°C° 0 mm 5 m/s 754 mmHg 75%
    07:00 +12°C° 0 mm 7 m/s 754 mmHg 65%
    08:00 +13°C° 0 mm 8 m/s 754 mmHg 55%
    09:00 +15°C° 0 mm 9 m/s 755 mmHg 52%
    10:00 +14°C° 0 mm 10 m/s 755 mmHg 49%
    11:00 +16°C° 0 mm 11 m/s 755 mmHg 46%
    12:00 +14°C° 0 mm 10 m/s 755 mmHg 47%
    13:00 +14°C° 0 mm 10 m/s 755 mmHg 48%
    14:00 +14°C° 0 mm 10 m/s 755 mmHg 49%
    15:00 +15°C° 0 mm 9 m/s 755 mmHg 52%
    16:00 +13°C° 0 mm 9 m/s 754 mmHg 56%
    17:00 +12°C° 0 mm 9 m/s 754 mmHg 59%
    18:00 +11°C° 0 mm 8 m/s 754 mmHg 62%
    19:00 +11°C° 0 mm 7 m/s 755 mmHg 65%
    20:00 +10°C° 0 mm 7 m/s 755 mmHg 68%
    21:00 +10°C° 0 mm 7 m/s 755 mmHg 69%
    22:00 +10°C° 0 mm 6 m/s 755 mmHg 71%
    23:00 +10°C° 0 mm 6 m/s 755 mmHg 73%

    25 Martie, Luni

    Timp Temperatura Precipitaţii Vânt Presiune Umiditate
    00:00 +10°C° 0 mm 6 m/s 755 mmHg 73%
    01:00 +10°C° 0 mm 5 m/s 755 mmHg 74%
    02:00 +10°C° 0 mm 5 m/s 755 mmHg 74%
    03:00 +9°C° 0 mm 5 m/s 755 mmHg 74%
    04:00 +9°C° 0 mm 5 m/s 755 mmHg 73%
    05:00 +9°C° 0 mm 5 m/s 755 mmHg 73%
    06:00 +10°C° 0 mm 5 m/s 755 mmHg 70%
    07:00 +12°C° 0 mm 5 m/s 755 mmHg 68%
    08:00 +13°C° 0 mm 5 m/s 755 mmHg 65%
    09:00 +14°C° 0 mm 5 m/s 755 mmHg 61%
    10:00 +15°C° 0 mm 6 m/s 756 mmHg 57%
    11:00 +16°C° 0 mm 6 m/s 756 mmHg 53%
    12:00 +17°C° 0 mm 5 m/s 755 mmHg 53%
    13:00 +17°C° 0 mm 5 m/s 755 mmHg 52%
    14:00 +17°C° 0 mm 5 m/s 755 mmHg 52%
    15:00 +17°C° 0 mm 5 m/s 755 mmHg 54%
    16:00 +16°C° 0 mm 5 m/s 754 mmHg 57%
    17:00 +16°C° 0 mm 5 m/s 754 mmHg 60%
    18:00 +14°C° 0 mm 4 m/s 754 mmHg 66%
    19:00 +13°C° 0 mm 4 m/s 754 mmHg 72%
    20:00 +11°C° 0 mm 4 m/s 754 mmHg 79%
    21:00 +11°C° 0 mm 4 m/s 754 mmHg 77%
    22:00 +11°C° 0 mm 4 m/s 754 mmHg 76%
    23:00 +11°C° 0 mm 3 m/s 754 mmHg 75%

    26 Martie, Marţi

    Timp Temperatura Precipitaţii Vânt Presiune Umiditate
    00:00 +11°C° 0 mm 3 m/s 754 mmHg 72%
    01:00 +11°C° 0 mm 3 m/s 754 mmHg 70%
    02:00 +11°C° 0 mm 3 m/s 753 mmHg 67%
    03:00 +12°C° 0 mm 2 m/s 753 mmHg 63%
    04:00 +10°C° 0 mm 2 m/s 753 mmHg 59%
    05:00 +10°C° 0 mm 2 m/s 753 mmHg 55%
    06:00 +13°C° 0 mm 2 m/s 753 mmHg 50%
    07:00 +15°C° 0 mm 2 m/s 753 mmHg 45%
    08:00 +16°C° 0 mm 2 m/s 753 mmHg 40%
    09:00 +18°C° 0 mm 2 m/s 753 mmHg 39%
    10:00 +19°C° 0 mm 2 m/s 753 mmHg 38%
    11:00 +20°C° 0 mm 2 m/s 753 mmHg 37%
    12:00 +21°C° 0 mm 3 m/s 753 mmHg 41%
    13:00 +21°C° 0 mm 4 m/s 752 mmHg 46%
    14:00 +21°C° 0 mm 5 m/s 752 mmHg 51%
    15:00 +20°C° 0 mm 5 m/s 752 mmHg 56%
    16:00 +19°C° 0 mm 5 m/s 752 mmHg 60%
    17:00 +19°C° 0 mm 5 m/s 751 mmHg 64%
    18:00 +17°C° 0 mm 4 m/s 752 mmHg 72%
    19:00 +14°C° 0 mm 3 m/s 752 mmHg 79%
    20:00 +13°C° 0 mm 3 m/s 752 mmHg 86%
    21:00 +13°C° 0 mm 3 m/s 752 mmHg 87%
    22:00 +13°C° 0 mm 3 m/s 752 mmHg 88%
    23:00 +12°C° 0 mm 3 m/s 752 mmHg 89%
    Arată mai mult